Simultaneous Nadir Overpasses (SNOs) Predictions

Prediction of SNOs between LANDSAT-8 and METOP-B Satellite Orbit:

Table of predicted SNOs for the next 14.0 days since TLE Epoch: 9/4/2015
Index Date (LANDSAT-8) Time (LANDSAT-8) Lat,Lon (LANDSAT-8) SZA (LANDSAT-8 ) Date (METOP-B) Time (METOP-B) Lat,Lon (METOP-B) SZA (METOP-B ) Distance(km) Time Diff (sec)
1 09/05/2015 17:43:05 81.14, -45.48 76.55 09/05/2015 17:42:57 81.14, -45.48 76.55 0.05 8
2 09/05/2015 18:32:30 -81.16, 122.47 103.39 09/05/2015 18:33:36 -81.16, 122.29 103.39 3.13 66
3 09/08/2015 13:17:21 81.14, 20.87 77.61 09/08/2015 13:17:19 81.13, 20.68 77.59 3.33 2
4 09/08/2015 14:06:47 -81.16,-171.15 102.33 09/08/2015 14:07:58 -81.16,-171.16 102.30 0.44 71
5 09/11/2015 08:02:12 -81.13, -80.52 101.35 09/11/2015 08:01:02 -81.12, -80.65 101.40 2.31 70
6 09/11/2015 08:51:37 81.15, 87.53 78.73 09/11/2015 08:51:40 81.15, 87.57 78.73 0.61 3
7 09/14/2015 03:36:28 -81.14, -13.88 100.23 09/14/2015 03:35:23 -81.14, -13.77 100.25 1.98 65
8 09/14/2015 04:25:54 81.14, 153.77 79.79 09/14/2015 04:26:03 81.14, 153.68 79.79 1.57 9
9 09/16/2015 23:10:44 -81.12, 52.33 99.16 09/16/2015 23:09:45 -81.13, 52.34 99.18 0.34 59




NCC Satellite Simultaneous Nadir Overpasses (SNOs) Prediction Service
